Join Today

Capital City Aviation is creating Tomorrows Pilots Today!

Come and experience the Freeedom of Flight!

Join Today
Checkout the National Weather Services “NEW” Aviation Weather website. Let us know what you think!Learn More
One of the webs greatest supplemental resources for students, pilots and aviation enthusiasts.Learn More
SkyVector has grown in popularity to become the number one internet destination for aeronautical charts and publications!Learn More
Welcome to CSC Duats! Where we have been serving pilots since 1989. File your IFR / VFR flight plan today!Learn More
To provide aviation students and members with the highest quality instruction and rental aircraft in the central Ohio region. 

We employ the best of the best that Central Ohio has to offer. With total team experience exceeding 50 years we have what it takes to not only train at a level that exceeds most clubs but that are comparable to many of the top tier schools within the country.
To share the joy of that  which we love most…FLYING!!
To provide our students and members with a safe positive flying experience all at an excellent value .

    Current METAR for KOSU
    KOSU 191653Z 05007KT 10SM CLR 21/06 A3019 RMK AO2 SLP222 T02060056
    Current METAR for KCMH
    KCMH 191651Z VRB03KT 10SM CLR 22/07 A3019 RMK AO2 SLP220 T02170067
    Current METAR for KTZR
    KTZR 191747Z 03005KT 10SM SKC 21/09 A3018
    Current METAR for KLCK
    KLCK 191735Z AUTO 12004KT 10SM CLR 21/09 A3017 RMK AO2 T02120090
Note: This calculator is provided as a convenience only. Should you be planning a trip by air you should always use official sectional charts and other prudent and official sources of information on which to base your flight planning and go/no-go decisions.

Central Ohio’s Ultimate Aviation Club House

While we pride ourselves in the level of professionalism and sincerity that we approach our training with, we also place a major emphasis on making training fun. Aviation is serious business but it should always be enjoyable. We foster a relaxed atmosphere that promotes learning instead of causing intimidation or anxiety. The aviation community is very tight-knit and at Capital City Aviation we like to think of our customers and employees as a small family within that community. Our club house offers a lounge, student work areas, briefing rooms and work stations. We also provide FREE Wifi in order for our members to get up-to-date information for all their flying needs.

Capital City Aviation is located above Hanger 2 at the Ohio State University Airport

2160 West Case Road,
Columbus, OH 43235
Phone: (614) 459-2541
Web: www.capitalcityaviation.com

CCA Directions